Location: Newark
(5.8900°S, 42.6378°W)
Time: 04:05:10
(UTC+00:00)

X-37B - Pass Details

Date: 24 September 2020
Orbit: 382 x 392 km, 45.0° (Epoch: 15 October)

Event Time Altitude Azimuth Distance (km) Brightness Sun altitude
Rises 21:48:38 0° 224° (SW) 2,270 5.2 -16.4°
Reaches altitude 10° 21:50:43 10° 224° (SW) 1,411 4.1 -16.9°
Maximum altitude 21:53:54 84° 313° (NW) 390 0.5 -17.7°
Enters shadow 21:54:36 51° 34° (NE) 491 0.8 -17.9°
